This is the latest recevied weather packets stored in our database for station/object EA5JMY-10. If no packets are shown the sender has not sent any weather packets the latest 10 day(s).
| Time | Temp. | Humidity | Pressure | Rain* | Wind** | Luminosity | Snow |
|---|---|---|---|---|---|---|---|
| 1787819655 | 35° C | 27% | 1013.7 hPa | - | - | - | - |
| 1787818754 | 37.22° C | 25% | 1013.5 hPa | - | - | - | - |
| 1787817854 | 39.44° C | 21% | 1013.6 hPa | - | - | - | - |
| 1787816954 | 33.89° C | 29% | 1013.6 hPa | - | - | - | - |
| 1787816054 | 35.56° C | 27% | 1013.8 hPa | - | - | - | - |
| 1787815154 | 35° C | 30% | 1013.6 hPa | - | - | - | - |
| 1787814254 | 32.22° C | 36% | 1013.8 hPa | - | - | - | - |
| 1787813354 | 30° C | 41% | 1013.7 hPa | - | - | - | - |
| 1787812453 | 27.78° C | 47% | 1013.8 hPa | - | - | - | - |
| 1787811553 | 31.67° C | 39% | 1013.7 hPa | - | - | - | - |
| 1787810653 | 30° C | 47% | 1013.3 hPa | - | - | - | - |
| 1787809753 | 26.67° C | 56% | 1013.2 hPa | - | - | - | - |
| 1787808853 | 25.56° C | 60% | 1012.8 hPa | - | - | - | - |
| 1787807953 | 25° C | 59% | 1012.7 hPa | - | - | - | - |
| 1787807053 | 25° C | 63% | 1012.6 hPa | - | - | - | - |
| 1787806153 | 25° C | 59% | 1012.7 hPa | - | - | - | - |
| 1787805252 | 25.56° C | 59% | 1012.4 hPa | - | - | - | - |
| 1787804352 | 25° C | 62% | 1012.3 hPa | - | - | - | - |
| 1787803452 | 25° C | 63% | 1012.1 hPa | - | - | - | - |
| 1787802552 | 25.56° C | 61% | 1012 hPa | - | - | - | - |
| 1787801652 | 25.56° C | 62% | 1012.1 hPa | - | - | - | - |
| 1787800752 | 25.56° C | 63% | 1012.5 hPa | - | - | - | - |
| 1787799852 | 25.56° C | 62% | 1012.3 hPa | - | - | - | - |
| 1787798952 | 26.11° C | 61% | 1012.3 hPa | - | - | - | - |
| 1787798052 | 26.11° C | 62% | 1012.3 hPa | - | - | - | - |
* Rain since midnight (hover to see other rain measurements)
** Current wind speed in m/s (hover to see current wind gust speed)